Showing default

IRIDIUM 176, 43923

Orbit data source: Space-Track

IRIDIUM 176, 43923 is a payload satellite owned by Iridium (US) in LEO that was launched on Fri, 11 Jan 2019 UTC via an FALCON 9 launch vehicle from the Air Force Western Test Range (AFWTR). Payload-class satellites include a variety of spacecraft equipped with specific instruments for various scientific and technological missions. These include communications satellites like Starlink; space stations such as the ISS; scientific satellites like the Hubble; Earth observation satellites from companies like Planet Labs, Umbra, and HawkEye 360; GPS; miniature CubeSats for education and research; and military/defense satellites.

Loading next visibility...
Identifier
43923, 2019-002B
Orbit
LEO
Country
Flag of USUS
Related business
Manufacturer
NGIS SSG Gilbert
Mission
Operational Commercial Communications
Bus & Motor
ELITEBUS, Unknown motor
Mass
860 kg wet, 700 kg dry
Launch date (UTC)
2019-01-11 (7 years ago)
Launch vehicle
FALCON 9
Launch site
Air Force Western Test Range (AFWTR)
Object type
Payload
Rocket body
Debris
Shape & HBR
Trap Box + 2 Pan, 4.8 m
Radar Cross Section
10.154 m², Large (>1 m²)

Expand to show TLE details & history
Last TLE update: 15 hours ago

TLE from 15 hours ago
0 IRIDIUM 176
1 43923U 19002B   26125.13543761  .00000694  00000-0  10622-3 0  9992
2 43923  86.6124  11.5413 0002340  80.6302 279.5180 14.72252763392918
Epoch: 2026-05-05T03:15Z
TLE epoch observation values (Epoch: 2026-05-05T03:15:01.809Z)
Latitude
0.00001°
Longitude
99.76914°
Altitude
656.721 km
Speed
7.529 km/s
True Right ascension
00h 46m 09s
True Declination
0° 00' 00"
Sunlit
Object was in daylight at epoch
Visualization orbit readout
Latitude
Unknown
Longitude
Unknown
Altitude
Unknown
Speed
Unknown
Apparent Right ascension
Unknown
Apparent Declination
Unknown
Sunlit
N/A
Visualization observer readout
Local Sidereal Time
01:56:53
Azimuth
Unknown
Elevation
Unknown
Doppler factor
Unknown
Orbital elements
Apogee altitude
652.437 km
Perigee altitude
649.147 km
Semi-major axis
7,028.929 km
Eccentricity
0.00023
Inclination
86.6124°
RAAN
11.5413°
Arg. of periapsis
80.6302°
True anomaly
279.49155°
Mean anomaly
279.518°
Eccentric anomaly
279.50478°
Mean motion
3.68307 °/min
Orbital period
97.74 mins
BSTAR
0.00010622
Loading maneuver chart data...
Computing Atmospheric mass density...
Loading historical data...
Loading historical data...
Loading historical data...
Loading historical data...
Loading historical data...
Loading historical data...
Loading historical data...

Documentation

Showing up to 5 results
|